This demonstration page uses our WeatherBlox Daily Observations layout. Learn more.

Left ArrowRight Arrow

41.12389, -100.76542

Hourly Observations for November 26, 2015

Temp ( °F °C ) Dew Point ( °F °C ) Humidity (%) Winds ( mph kmh ) Pressure ( in mb ) Visibility ( mi km ) Precip ( " mm )
12:21 am 00:21 Cloudy with Light Wintry Mix 31 -0.6 28 -2.2 89 89 N 18 30 30.24 1024 9 14 0.00 0.03
12:26 am 00:26 Cloudy with Light Freezing Rain 30 -1 27 -3 86 86 NNE 18 30 30.24 1024 9 14 0.00 0.00
12:39 am 00:39 Cloudy with Light Freezing Rain 30 -1.1 27 -2.8 88 88 N 16 26 30.24 1024 8 13 0.00 0.03
12:47 am 00:47 Cloudy with Light Freezing Rain 30 -1 27 -3 86 86 N 14 22 30.27 1025 9 14 0.00 0.03
12:53 am 00:53 Cloudy with Light Freezing Rain 29 -1.7 26 -3.3 89 89 N 12 19 30.18 1022 9 14 0.00 0.03
12:56 am 00:56 Cloudy with Light Freezing Rain 28 -2 27 -3 93 93 N 13 20 30.27 1025 10 16 0.00 0.00
1:06 am 01:06 Cloudy with Light Freezing Rain 28 -2 25 -4 86 86 NNE 15 24 30.27 1025 10 16 0.00 0.00
1:13 am 01:13 Cloudy with Light Freezing Rain 29 -1.7 26 -3.3 89 89 N 17 28 30.27 1025 10 16 0.00 0.03
1:16 am 01:16 Cloudy with Light Freezing Rain 29 -1.7 25 -3.9 85 85 N 16 26 30.27 1025 10 16 0.00 0.03
1:19 am 01:19 Cloudy with Light Freezing Rain 29 -1.7 25 -3.9 85 85 N 16 26 30.27 1025 10 16 0.00 0.03
1:42 am 01:42 Cloudy 28 -2.2 25 -3.9 88 88 N 10 17 30.30 1026 10 16 0.00 0.03
1:53 am 01:53 Cloudy 28 -2.2 24 -4.4 85 85 N 15 24 30.20 1023 10 16 0.00 0.03
2:06 am 02:06 Cloudy 28 -2 25 -4 86 86 N 13 20 30.30 1026 10 16 0.00 0.00
2:33 am 02:33 Cloudy 27 -3 23 -5 86 86 N 17 28 30.30 1026 10 16 0.00 0.00
2:53 am 02:53 Cloudy 27 -2.8 23 -5 85 85 N 10 17 30.23 1024 10 16 0.00 0.00
3:07 am 03:07 Cloudy 27 -3 23 -5 86 86 N 16 26 30.30 1026 10 16 0.00 0.00
3:53 am 03:53 Cloudy 26 -3.3 22 -5.6 84 84 N 13 20 30.25 1024 10 16 0.00 0.00
4:53 am 04:53 Cloudy 25 -3.9 22 -5.6 88 88 N 14 22 30.26 1025 10 16 0.00 0.00
5:20 am 05:20 Cloudy 25 -3.9 22 -5.6 88 88 N 13 20 30.36 1028 10 16 0.00 0.00
5:46 am 05:46 Cloudy 25 -4 21 -6 86 86 N 15 24 30.39 1029 10 16 0.00 0.00
5:53 am 05:53 Cloudy 25 -3.9 21 -6.1 85 85 N 15 24 30.30 1026 10 16 0.00 0.00
6:18 am 06:18 Cloudy with Light Freezing Rain 25 -4 21 -6 86 86 N 13 20 30.39 1029 10 16 0.00 0.00
6:42 am 06:42 Cloudy with Light Freezing Rain 25 -4 21 -6 86 86 N 12 19 30.39 1029 10 16 0.00 0.00
6:53 am 06:53 Cloudy with Light Freezing Rain 24 -4.4 21 -6.1 88 88 N 14 22 30.34 1027 10 16 0.00 0.03
7:21 am 07:21 Cloudy 24 -4.4 20 -6.7 84 84 N 17 28 30.39 1029 10 16 0.00 0.03
7:28 am 07:28 Cloudy 24 -4.4 20 -6.7 84 84 N 16 26 30.39 1029 10 16 0.00 0.03
7:53 am 07:53 Cloudy 23 -5 19 -7.2 85 85 N 17 28 30.35 1028 10 16 0.00 0.03
8:53 am 08:53 Cloudy 23 -5 19 -7.2 85 85 N 16 26 30.37 1028 10 16 0.00 0.00
9:53 am 09:53 Cloudy 23 -5 19 -7.2 85 85 N 16 26 30.41 1030 10 16 0.00 0.00
10:53 am 10:53 Cloudy 23 -5 19 -7.2 85 85 N 18 30 30.43 1030 10 16 0.00 0.00
11:53 am 11:53 Cloudy 23 -5 18 -7.8 81 81 N 16 26 30.44 1031 10 16 0.00 0.00
12:53 pm 12:53 Cloudy 23 -5 18 -7.8 81 81 N 14 22 30.42 1030 10 16 0.00 0.00
1:53 pm 13:53 Cloudy 22 -5.6 17 -8.3 82 82 N 15 24 30.44 1031 10 16 0.00 0.00
2:53 pm 14:53 Cloudy with Light Snow 23 -5 17 -8.3 78 78 N 14 22 30.43 1031 9 14 0.00 0.03
3:53 pm 15:53 Cloudy 22 -5.6 16 -8.9 78 78 N 16 26 30.45 1031 10 16 0.00 0.03
4:53 pm 16:53 Cloudy 22 -5.6 16 -8.9 78 78 N 12 19 30.47 1032 10 16 0.00 0.00
5:53 pm 17:53 Cloudy 21 -6.1 15 -9.4 78 78 N 12 19 30.51 1033 10 16 0.00 0.00
6:38 pm 18:38 Cloudy 21 -6 16 -9 80 80 N 13 20 30.59 1036 10 16 0.00 0.00
6:53 pm 18:53 Cloudy 21 -6.1 16 -8.9 81 81 N 10 17 30.53 1034 10 16 0.00 0.00
8:53 pm 20:53 Cloudy 20 -6.7 14 -10 78 78 N 8 13 30.57 1035 10 16 0.00 0.00
9:11 pm 21:11 Cloudy 21 -6.1 15 -9.4 78 78 N 5 7 30.65 1038 10 16 0.00 0.00
9:32 pm 21:32 Cloudy 19 -7 16 -9 86 86 N 10 17 30.65 1038 10 16 0.00 0.00
9:53 pm 21:53 Cloudy 20 -6.7 15 -9.4 81 81 N 9 15 30.58 1035 10 16 0.00 0.00
10:53 pm 22:53 Cloudy 19 -7.2 13 -10.6 77 77 N 7 11 30.60 1036 10 16 0.00 0.00
11:53 pm 23:53 Cloudy 19 -7.2 10 -12.2 68 68 N 13 20 30.60 1036 10 16 0.00 0.00

Powered by AerisWeather